Flag for Germany Weather past 2 weeks in Güstrow, Mecklenburg-Western Pomerania, Germany

Now
52 °F

Passing clouds.


Feels Like: 49 °F
Forecast: 51 / 62 °F
Wind: 8 mph from South

Location: Laage

Current Time: Sep 24, 2014 at 7:32:34 AM

Latest Report: Sep 24, 2014 at 6:20 AM


Visibility: N/A

Pressure: 29.92 "Hg

Humidity: 82%

Dew point: 46 °F

Location of GüstrowLocation

Historic Weather in Güstrow — Graph

°F

Güstrow temperature yesterday

Maximum temperature yesterday: 59 °F (at 2:20 PM)
Minimum temperature yesterday: 41 °F (at 6:20 AM)
Average temperature yesterday: 51 °F

Past Weeks' High & Low Weather Summary

 TemperatureHumidityPressure
High75 °F (Sep 15, 2:20 PM)100% (Sep 10, 7:03 AM)30.21 "Hg (Sep 10, 7:03 AM)
Low41 °F (Sep 23, 6:20 AM)50% (Sep 17, 12:20 PM)29.71 "Hg (Sep 22, 9:20 AM)
Average59 °F84%30.03 "Hg
* Reported Sep 9 6:20 AM — Sep 24 6:20 AM, Güstrow, Weather by CustomWeather, © 2014

Note: Actual official high and low records may vary slightly from our data, if they occured in-between our weather recording intervals... More about our weather records

Advertising

Güstrow weather history for previous 24 hours

 ConditionsComfort  
Time TempWeatherWind HumidityBarometerVisibility
6:20 AM
Sep 24
52 °FPassing clouds.8 mph82%29.92 "HgN/A
5:20 AM52 °FPartly cloudy.6 mph82%29.95 "HgN/A
4:20 AM52 °FPassing clouds.6 mph82%29.95 "HgN/A
3:20 AM50 °FPassing clouds.6 mph88%29.95 "HgN/A
2:20 AM52 °FPassing clouds.6 mph77%29.98 "HgN/A
1:20 AM50 °FPassing clouds.6 mph82%29.98 "HgN/A
12:20 AM50 °FPartly cloudy.7 mph76%30.01 "HgN/A
11:20 PM
Sep 23
50 °FPassing clouds.6 mph82%30.01 "HgN/A
10:20 PM50 °FPassing clouds.2 mph82%30.04 "HgN/A
9:20 PM50 °FPassing clouds.2 mph76%30.04 "HgN/A
8:20 PM52 °FPartly cloudy.2 mph77%30.04 "HgN/A
7:20 PM50 °FPartly sunny.2 mph82%30.04 "HgN/A
6:20 PM57 °FPassing clouds.3 mph59%30.04 "HgN/A
5:20 PM57 °FPassing clouds.7 mph51%30.07 "HgN/A
4:20 PM55 °FPassing clouds.9 mph59%30.07 "HgN/A
3:20 PM57 °FScattered clouds.9 mph55%30.07 "HgN/A
2:20 PM59 °FScattered clouds.9 mph51%30.09 "HgN/A
1:20 PM55 °FScattered clouds.8 mph59%30.09 "HgN/A
12:20 PM55 °FScattered clouds.8 mph59%30.09 "HgN/A
11:20 AM54 °FScattered clouds.8 mph63%30.09 "HgN/A
10:20 AM52 °FScattered clouds.8 mph62%30.09 "HgN/A
9:20 AM52 °FPassing clouds.6 mph67%30.07 "HgN/A
8:20 AM46 °FPassing clouds.6 mph82%30.07 "HgN/A
7:20 AM43 °FPassing clouds.6 mph81%30.04 "HgN/A
Weather by CustomWeather, © 2014

See weather overviewHow to use our weather pages